User: anonymous   Login
Location: La Sioule Rivi�re
(46.3664°N, 3.3197°E)
Time: 18:03:32
(UTC+00:00)
Language:

COSMO-SKYMED 1 - Orbit

View from above orbital plane
View from above orbital plane
View from above satellite
View from above satellite

Ground track
Ground track

The orbit data is extracted from the following two-line orbital elements,

1 31598U 07023A   21026.26253350 -.00000124  00000-0 -89723-5 0  9998
2 31598  97.8832 212.1836 0001415  90.2859 269.8527 14.82156336737838
Epoch (UTC): 26 January 2021 06:18:02
Eccentricity: 0.0001415
inclination: 97.8832°
perigee height: 621 km
apogee height: 623 km
right ascension of ascending node: 212.1836°
argument of perigee: 90.2859°
revolutions per day: 14.82156336
mean anomaly at epoch: 269.8527°
orbit number at epoch: 73783

The dashed part of the orbit path shows where the satellite is in the earth's shadow,  

DLR